Home   Weather   Vista   Past weeks

Flag for USA Past Weather in Vista, California, USA — Yesterday and Last 2 Weeks

Now
64 °F

Partly sunny.


Feels Like: 64 °F
Forecast: 57 / 69 °F
Wind: 14 mph from Southwest

Location: McClellan-Palomar Airport

Current Time: Apr 24, 2017 at 12:13:07 pm

Latest Report: Apr 24, 2017 at 11:22 am


Visibility: 10 mi

Pressure: 29.96 "Hg

Humidity: 68%

Dew Point: 53 °F

Location of VistaLocation

Past Weather in Vista — Graph

°F

Vista Temperature Yesterday

Maximum temperature yesterday: 71 °F (at 12:38 pm)
Minimum temperature yesterday: 59 °F (at 5:53 am)
Average temperature yesterday: 63 °F

High & Low Weather Summary for the Past Weeks

 TemperatureHumidityPressure
High80 °F (Apr 22, 1:53 pm)100% (Apr 17, 10:03 pm)30.13 "Hg (Apr 17, 10:03 pm)
Low51 °F (Apr 14, 5:53 am)35% (Apr 22, 2:53 pm)29.82 "Hg (Apr 23, 4:53 am)
Average62 °F78%29.99 "Hg
* Reported Apr 9 10:53 am — Apr 24 10:53 am, Vista, Weather by CustomWeather, © 2017

Note: Actual official high and low records may vary slightly from our data, if they occured in-between our weather recording intervals... More about our weather records

Advertising

Vista Weather History for the Previous 24 Hours

Scroll right to see more
 ConditionsComfort  
Time TempWeatherWind HumidityBarometerVisibility
10:53 am
Mon, Apr 24
65 °FOvercast.10 mph68%29.95 "Hg10 mi
9:53 am63 °FOvercast.13 mph75%29.93 "Hg9 mi
9:04 am63 °FBroken clouds.7 mph70%29.92 "Hg10 mi
8:53 am64 °FScattered clouds.7 mph70%29.92 "Hg10 mi
8:39 am63 °FScattered clouds.7 mph73%29.92 "Hg10 mi
7:53 am62 °FOvercast.9 mph75%29.91 "Hg8 mi
6:53 am61 °FOvercast.7 mph78%29.89 "Hg9 mi
5:53 am60 °FOvercast.5 mph83%29.88 "Hg7 mi
4:53 am61 °FMostly cloudy.5 mph78%29.86 "Hg9 mi
3:53 am60 °FOvercast.6 mph80%29.85 "Hg10 mi
2:53 am61 °FOvercast.7 mph78%29.85 "Hg9 mi
1:53 am62 °FOvercast.7 mph75%29.85 "Hg10 mi
12:53 am62 °FOvercast.6 mph78%29.88 "Hg10 mi
11:53 pm
Sun, Apr 23
61 °FOvercast.3 mph83%29.88 "Hg10 mi
11:02 pm62 °FOvercast.6 mph80%29.88 "Hg10 mi
10:53 pm62 °FOvercast.8 mph80%29.87 "Hg10 mi
9:53 pm62 °FOvercast.3 mph80%29.87 "Hg10 mi
8:53 pm62 °FOvercast.7 mph80%29.86 "Hg10 mi
7:53 pm61 °FOvercast.7 mph83%29.85 "Hg10 mi
7:36 pm61 °FPassing clouds.6 mph83%29.86 "Hg8 mi
7:20 pm61 °FScattered clouds.7 mph83%29.86 "Hg8 mi
6:53 pm62 °FPartly sunny.7 mph80%29.85 "Hg8 mi
5:53 pm64 °FPassing clouds.7 mph78%29.85 "Hg9 mi
4:53 pm65 °FSunny.12 mph73%29.85 "Hg9 mi
3:53 pm65 °FSunny.7 mph73%29.85 "Hg9 mi
2:53 pm67 °FSunny.12 mph68%29.86 "Hg10 mi
1:53 pm66 °FSunny.16 mph75%29.86 "Hg9 mi
12:53 pm70 °FSunny.8 mph68%29.85 "Hg10 mi
12:38 pm71 °FScattered clouds.9 mph66%29.88 "Hg10 mi
12:04 pm66 °FOvercast.9 mph75%29.89 "Hg9 mi
Weather by CustomWeather, © 2017

See weather overviewHow to use our weather pages